Weather History for KJWY - August, 2013

Change the Weather History Date:

Monday, August 26, 2013

  Actual Average (KRBD) Record (KRBD)
Temperature  
Mean Temperature 84 °F -  
Max Temperature 96 °F 91 °F 106 °F (2011)
Min Temperature 72 °F 71 °F 66 °F (1997)
Cooling Degree Days 19    
Growing Degree Days 34 (Base 50)    
Moisture  
Dew Point 63 °F    
Average Humidity 52    
Maximum Humidity 81    
Minimum Humidity 26    
Precipitation  
Precipitation 0.00 in - - ()
Sea Level Pressure  
Sea Level Pressure 30.13 in    
Wind  
Wind Speed 6 mph (ESE)    
Max Wind Speed 16 mph    
Max Gust Speed 23 mph    
Visibility 10 miles    
Events      
Averages and records for this station are not official NWS values.
T = Trace of Precipitation, MM = Missing Value Source: NWS Daily Summary

Daily Weather History Graph

Daily Weather History Graph

Search for Another Location

Airport or City:

Trip Planner

Search our weather history database for the weather conditions in past years. The results will help you decide how hot, cold, wet, or windy it might be!

Date:

Astronomy

Aug. 26, 2013 Rise Set
Actual Time 6:58 AM CDT 7:59 PM CDT
Civil Twilight 6:33 AM CDT 8:24 PM CDT
Nautical Twilight 6:03 AM CDT 8:54 PM CDT
Astronomical Twilight 5:32 AM CDT 9:25 PM CDT
Moon 11:34 PM CDT (8/26) 12:38 PM CDT (8/26)
Length of Visible Light 13h 50m
Length of Day
13h 00m
Waning Gibbous, 66% of the Moon is Illuminated
Aug 26
Waning Gibbous
Aug 28
Last Quarter
Sep 5
New
Sep 12
First Quarter
Sep 19
Full

Hourly Weather History & Observations

Time (CDT) Temp. Heat Index Dew Point Humidity Pressure Visibility Wind Dir Wind Speed Gust Speed Precip Events Conditions
12:15 AM 83.3 °F 84.1 °F 62.2 °F 49% 30.14 in 10.0 mi ESE 5.8 mph - N/A   Clear
12:35 AM 83.1 °F 84.0 °F 62.8 °F 50% 30.15 in 10.0 mi SE 5.8 mph - N/A   Clear
12:55 AM 82.4 °F 83.7 °F 63.7 °F 53% 30.14 in 10.0 mi SE 6.9 mph - N/A   Clear
1:15 AM 81.9 °F 83.5 °F 64.6 °F 56% 30.15 in 10.0 mi SE 5.8 mph - N/A   Clear
1:35 AM 81.5 °F 83.3 °F 65.1 °F 57% 30.15 in 10.0 mi SE 5.8 mph - N/A   Clear
1:55 AM 81.1 °F 82.9 °F 65.1 °F 58% 30.14 in 10.0 mi SE 6.9 mph - N/A   Clear
2:15 AM 80.6 °F 82.3 °F 64.8 °F 58% 30.14 in 10.0 mi SE 8.1 mph - N/A   Clear
2:35 AM 79.9 °F - 65.3 °F 61% 30.14 in 10.0 mi SE 4.6 mph - N/A   Clear
2:55 AM 79.3 °F - 65.3 °F 62% 30.15 in 10.0 mi SE 5.8 mph - N/A   Clear
3:15 AM 78.8 °F - 65.3 °F 63% 30.15 in 10.0 mi SE 4.6 mph - N/A   Clear
3:35 AM 78.1 °F - 65.5 °F 65% 30.15 in 10.0 mi SE 4.6 mph - N/A   Clear
3:55 AM 77.4 °F - 65.5 °F 67% 30.15 in 10.0 mi SE 3.5 mph - N/A   Clear
4:15 AM 76.5 °F - 65.5 °F 69% 30.15 in 10.0 mi Calm Calm - N/A   Clear
4:35 AM 75.4 °F - 65.7 °F 72% 30.15 in 10.0 mi East 3.5 mph - N/A   Clear
4:55 AM 75.4 °F - 66.0 °F 73% 30.15 in 10.0 mi Calm Calm - N/A   Clear
5:15 AM 75.2 °F - 65.7 °F 72% 30.15 in 10.0 mi East 4.6 mph - N/A   Clear
5:35 AM 74.8 °F - 65.8 °F 73% 30.15 in 10.0 mi East 3.5 mph - N/A   Clear
5:55 AM 74.5 °F - 66.2 °F 75% 30.15 in 10.0 mi East 3.5 mph - N/A   Clear
6:15 AM 73.6 °F - 65.8 °F 77% 30.16 in 10.0 mi Calm Calm - N/A   Clear
6:35 AM 72.5 °F - 65.7 °F 79% 30.17 in 10.0 mi East 3.5 mph - N/A   Clear
6:55 AM 72.5 °F - 66.2 °F 81% 30.17 in 10.0 mi East 4.6 mph - N/A   Clear
7:15 AM 73.0 °F - 66.7 °F 81% 30.18 in 10.0 mi Calm Calm - N/A   Clear
7:35 AM 73.0 °F - 66.4 °F 80% 30.18 in 10.0 mi East 3.5 mph - N/A   Clear
7:55 AM 74.7 °F - 67.1 °F 77% 30.19 in 10.0 mi Calm Calm - N/A   Clear
8:35 AM 77.4 °F - 68.2 °F 73% 30.19 in 10.0 mi East 6.9 mph - N/A   Clear
8:55 AM 78.1 °F - 68.0 °F 71% 30.18 in 10.0 mi ESE 4.6 mph - N/A   Clear
9:15 AM 79.5 °F - 67.6 °F 67% 30.19 in 10.0 mi ESE 6.9 mph - N/A   Clear
9:35 AM 80.4 °F 82.8 °F 67.1 °F 64% 30.19 in 10.0 mi ESE 6.9 mph - N/A   Scattered Clouds
9:55 AM 81.9 °F 84.2 °F 66.6 °F 60% 30.19 in 10.0 mi ESE 6.9 mph - N/A   Clear
10:15 AM 82.9 °F 85.2 °F 66.2 °F 57% 30.19 in 10.0 mi ESE 6.9 mph - N/A   Scattered Clouds
10:35 AM 84.2 °F 86.1 °F 65.3 °F 53% 30.19 in 10.0 mi East 10.4 mph - N/A   Clear
10:55 AM 85.3 °F 87.1 °F 65.3 °F 51% 30.19 in 10.0 mi East 6.9 mph - N/A   Scattered Clouds
11:15 AM 86.0 °F 87.6 °F 64.6 °F 49% 30.19 in 10.0 mi ESE 9.2 mph - N/A   Clear
11:35 AM 87.6 °F 89.1 °F 64.2 °F 46% 30.18 in 10.0 mi ESE 9.2 mph - N/A   Clear
11:55 AM 88.7 °F 89.8 °F 63.9 °F 43% 30.18 in 10.0 mi East 8.1 mph 16.1 mph N/A   Clear
12:15 PM 90.1 °F 90.9 °F 63.0 °F 40% 30.17 in 10.0 mi East 9.2 mph 17.3 mph N/A   Clear
12:35 PM 90.1 °F 90.9 °F 62.8 °F 40% 30.16 in 10.0 mi East 9.2 mph - N/A   Scattered Clouds
12:55 PM 90.5 °F 91.1 °F 62.1 °F 39% 30.16 in 10.0 mi ESE 8.1 mph 20.7 mph N/A   Scattered Clouds
1:15 PM 91.6 °F 92.0 °F 61.7 °F 37% 30.15 in 10.0 mi ESE 9.2 mph 16.1 mph N/A   Clear
1:35 PM 93.2 °F 93.7 °F 61.5 °F 35% 30.14 in 10.0 mi ESE 13.8 mph 19.6 mph N/A   Scattered Clouds
1:55 PM 94.8 °F 94.5 °F 59.9 °F 31% 30.13 in 10.0 mi ESE 10.4 mph 16.1 mph N/A   Scattered Clouds
2:15 PM 94.5 °F 93.6 °F 58.1 °F 30% 30.12 in 10.0 mi ESE 12.7 mph 23.0 mph N/A   Scattered Clouds
2:35 PM 95.4 °F 94.6 °F 57.9 °F 29% 30.11 in 10.0 mi ESE 10.4 mph 18.4 mph N/A   Scattered Clouds
2:55 PM 95.0 °F 93.7 °F 56.8 °F 28% 30.10 in 10.0 mi East 10.4 mph 18.4 mph N/A   Scattered Clouds
3:15 PM 95.4 °F 94.2 °F 57.4 °F 28% 30.09 in 10.0 mi ESE 10.4 mph 17.3 mph N/A   Scattered Clouds
3:35 PM 95.2 °F 93.9 °F 57.2 °F 28% 30.09 in 10.0 mi East 11.5 mph 17.3 mph N/A   Scattered Clouds
3:55 PM 95.5 °F 94.1 °F 56.3 °F 27% 30.08 in 10.0 mi East 10.4 mph 19.6 mph N/A   Scattered Clouds
4:15 PM 94.3 °F 92.4 °F 55.9 °F 27% 30.08 in 10.0 mi ESE 10.4 mph 20.7 mph N/A   Scattered Clouds
4:35 PM 95.7 °F 94.0 °F 55.8 °F 26% 30.07 in 10.0 mi ESE 8.1 mph 21.9 mph N/A   Scattered Clouds
4:55 PM 96.1 °F 94.5 °F 56.3 °F 26% 30.06 in 10.0 mi ESE 9.2 mph - N/A   Scattered Clouds
5:15 PM 94.6 °F 92.6 °F 54.7 °F 26% 30.07 in 10.0 mi ESE 6.9 mph 18.4 mph N/A   Scattered Clouds
5:35 PM 94.3 °F 92.1 °F 54.9 °F 26% 30.07 in 10.0 mi ESE 10.4 mph 17.3 mph N/A   Scattered Clouds
5:55 PM 93.4 °F 91.5 °F 55.6 °F 28% 30.07 in 10.0 mi ESE 9.2 mph 17.3 mph N/A   Scattered Clouds
6:15 PM 93.2 °F 91.0 °F 54.9 °F 27% 30.07 in 10.0 mi ESE 9.2 mph - N/A   Scattered Clouds
6:35 PM 92.3 °F 90.5 °F 55.4 °F 29% 30.07 in 10.0 mi ESE 8.1 mph 18.4 mph N/A   Scattered Clouds
6:55 PM 91.6 °F 89.8 °F 55.9 °F 30% 30.07 in 10.0 mi ESE 9.2 mph 16.1 mph N/A   Clear
7:15 PM 90.7 °F 89.0 °F 55.9 °F 31% 30.07 in 10.0 mi ESE 6.9 mph - N/A   Clear
7:35 PM 90.0 °F 88.3 °F 56.7 °F 32% 30.06 in 10.0 mi East 6.9 mph - N/A   Clear
7:55 PM 88.9 °F 87.5 °F 56.8 °F 34% 30.07 in 10.0 mi ESE 6.9 mph - N/A   Scattered Clouds
8:15 PM 85.3 °F 86.4 °F 63.5 °F 48% 30.09 in 10.0 mi SSE 16.1 mph 23.0 mph N/A   Mostly Cloudy
8:35 PM 82.4 °F 84.1 °F 64.8 °F 55% 30.09 in 10.0 mi SSE 12.7 mph 18.4 mph N/A   Scattered Clouds
8:55 PM 81.1 °F 82.9 °F 65.3 °F 58% 30.09 in 10.0 mi SSE 10.4 mph - N/A   Clear
9:15 PM 81.1 °F 82.9 °F 65.3 °F 58% 30.10 in 10.0 mi SE 5.8 mph - N/A   Mostly Cloudy
9:35 PM 80.8 °F 82.8 °F 65.8 °F 60% 30.10 in 10.0 mi SE 8.1 mph - N/A   Overcast
9:55 PM 80.6 °F 82.7 °F 65.8 °F 61% 30.10 in 10.0 mi SSE 8.1 mph - N/A   Mostly Cloudy
10:15 PM 80.1 °F 82.0 °F 65.7 °F 61% 30.10 in 10.0 mi SSE 8.1 mph - N/A   Mostly Cloudy
10:35 PM 79.5 °F - 65.7 °F 62% 30.10 in 10.0 mi SSE 10.4 mph - N/A   Scattered Clouds
10:55 PM 79.0 °F - 65.5 °F 63% 30.10 in 10.0 mi SE 10.4 mph - N/A   Clear
11:15 PM 78.3 °F - 65.5 °F 65% 30.10 in 10.0 mi SE 6.9 mph - N/A   Clear
11:35 PM 77.2 °F - 65.3 °F 67% 30.10 in 10.0 mi SE 4.6 mph - N/A   Clear
11:55 PM 76.6 °F - 66.2 °F 70% 30.10 in 10.0 mi SE 3.5 mph - N/A   Clear